Volver al catálogo

METEOR 2-17 DEB

ActivoPO
NORAD 38283·DEBRIS·🇷🇺 Russia

Lanzado Jan 30, 1988 desde Plesetsk Cosmodrome

Loading…

Próximos Pases (próximas 24 horas)

TLE

EnvejeciendoSource: Space-Track

Época: Sep 4, 2026, 14:33 UTC

1 38283U 88005AL  26247.60671415  .00000859  00000-0  55458-3 0  9998
2 38283  82.5514 205.7206 0020037  28.9830 331.2448 14.01780589114874

Sigue METEOR 2-17 DEB en tiempo real con AllMySat

Download on the App Store